Theta_e
328 329 329 326 320 318 317 318 317 315 316 319 318 318 317 317 315 314 317 319 319 319 318 317 318 318 319 319 320 322 324 326 329 329 329 329 328 328 327 327 327 329 330 331
328 329 326 323 319 317 317 317 316 316 319 320 319 318 316 314 314 317 318 319 320 319 318 318 318 318 318 319 319 319 319 321 322 326 329 329 328 328 328 329 330 331 330 330
329 328 325 322 318 319 317 316 317 320 319 318 320 319 317 316 317 318 319 320 320 320 319 318 317 317 317 318 318 318 319 319 321 324 326 329 329 328 329 331 331 329 329 329
326 320 324 323 319 316 317 316 319 321 319 321 318 320 316 315 316 316 317 319 319 319 319 318 318 318 317 317 317 317 318 319 321 322 324 325 328 328 326 325 324 325 325 325
326 320 322 321 319 316 318 319 320 319 317 317 318 318 316 315 317 316 315 318 318 318 318 318 317 317 317 317 317 317 316 317 317 317 317 318 318 317 316 316 317 319 321 324
318 318 317 317 317 317 317 317 315 314 315 319 317 318 317 316 317 315 315 317 317 318 318 317 318 317 317 317 316 316 316 315 315 315 315 315 315 315 315 315 315 315 314 314
318 314 312 316 315 314 315 316 320 321 320 321 316 317 318 315 314 317 314 316 317 317 317 317 317 317 317 316 316 315 315 315 315 315 315 314 314 314 315 315 315 315 315 315
319 319 313 312 315 315 314 316 320 326 324 323 317 318 317 313 315 318 318 318 317 318 317 317 317 317 316 316 315 315 315 315 314 314 313 312 312 312 313 314 314 314 313 312
317 318 314 314 313 315 316 318 317 320 318 320 319 318 316 313 314 315 316 317 317 318 318 317 316 316 316 315 315 315 315 314 314 311 308 309 309 309 309 310 310 310 310 309
318 317 316 314 314 313 316 314 319 317 324 323 318 319 319 317 316 314 314 316 318 317 317 317 316 315 315 315 314 314 314 313 311 307 307 308 308 308 308 308 308 308 307 307
318 317 319 315 316 316 315 314 314 314 316 320 319 318 313 313 313 315 315 318 318 317 317 316 316 315 315 315 314 314 314 312 309 306 307 307 307 308 308 308 307 307 307 306
322 317 318 320 316 315 315 316 313 316 318 314 313 317 312 312 311 314 317 319 318 317 316 316 315 314 314 314 313 312 311 309 306 306 307 306 305 305 306 306 305 304 303 301
321 321 321 323 319 317 319 317 314 314 314 318 318 318 312 314 312 315 316 318 318 316 316 315 314 313 312 312 311 310 309 306 306 306 306 305 305 304 303 301 300 299 297 296
318 317 320 324 321 318 320 320 316 315 316 316 316 318 316 315 315 316 318 318 316 316 315 314 312 311 311 310 309 308 306 306 306 305 304 303 301 299 297 295 293 292 291 291
315 317 317 316 316 316 318 318 318 318 316 317 316 316 315 313 311 313 315 315 315 315 313 312 311 310 309 308 307 305 306 306 304 302 300 298 296 293 291 291 291 290 290 290
314 316 313 312 312 312 313 312 311 313 316 316 315 315 313 314 314 316 316 314 315 314 311 310 310 309 308 305 305 307 306 304 301 298 295 292 291 291 290 290 290 289 289 289
313 311 311 311 312 314 316 314 311 310 309 310 312 311 312 313 314 314 315 314 314 311 310 310 309 307 304 306 306 305 303 300 296 292 290 290 290 290 289 289 288 288 288 288
311 310 310 312 314 319 316 312 313 313 313 312 311 311 312 314 313 314 315 316 313 311 309 308 306 305 306 306 304 302 298 294 290 290 290 289 289 288 288 288 288 288 287 287
308 309 311 314 315 315 316 315 316 317 315 313 314 314 314 313 312 313 313 314 313 310 308 306 305 305 305 303 302 298 293 290 290 290 289 288 288 288 287 287 287 287 287 286
308 307 311 306 313 318 315 314 314 313 313 313 314 313 314 313 312 309 312 312 311 308 306 306 305 305 304 301 298 293 290 289 289 288 288 287 287 287 287 286 286 286 286 286
309 309 311 312 313 312 311 312 314 316 311 311 311 311 311 312 312 312 311 310 308 307 307 306 305 305 305 301 293 290 289 288 288 287 287 287 287 286 286 286 286 285 285 285
312 310 311 310 312 312 312 314 316 311 311 310 311 310 310 310 311 311 311 310 309 308 306 305 304 305 303 293 289 288 287 287 287 287 287 286 286 286 285 285 285 285 285 285
314 312 313 311 310 311 313 312 311 312 311 311 311 310 310 309 309 309 309 307 306 305 304 304 303 301 296 289 288 287 287 287 287 286 286 286 286 285 285 284 284 284 284 284
311 310 312 313 311 309 311 311 311 311 311 311 310 310 309 308 308 308 307 306 305 304 302 301 300 294 288 288 287 287 286 286 286 286 286 285 285 284 284 284 284 283 284 284
309 311 310 310 310 310 310 310 310 310 310 309 309 308 309 308 306 306 305 304 304 302 300 297 292 288 288 287 287 286 286 286 285 285 285 285 284 284 283 283 283 283 283 284
309 309 310 310 309 310 309 309 309 309 309 308 308 308 307 306 305 304 303 303 301 298 295 292 288 288 287 286 286 286 286 285 285 285 284 284 284 283 283 283 283 283 283 284
Wind_Speed
18 5 10 10 10 5 4 3 4 8 9 8 8 6 11 6 9 14 15 14 13 11 10 10 10 9 7 4 8 7 11 18 25 27 27 26 25 24 25 25 26 27 28 30
7 17 13 9 6 5 5 6 9 9 4 1 1 8 7 3 6 16 17 13 11 10 10 11 12 14 15 15 13 9 6 11 11 10 21 28 29 29 27 25 25 26 27 27
8 10 13 9 5 8 6 8 5 6 6 4 0 6 2 2 6 11 12 12 10 9 10 11 12 13 13 15 16 15 13 8 8 8 6 12 20 24 23 22 23 24 24 24
5 6 16 11 11 8 8 8 8 3 2 3 2 4 3 4 5 3 11 12 11 9 8 9 11 12 14 16 15 15 13 9 6 5 4 3 6 11 13 17 18 19 20 23
8 13 16 13 10 9 10 6 3 0 1 3 2 1 6 6 6 7 9 13 12 9 8 10 11 13 13 13 14 13 13 13 14 13 12 10 8 10 10 11 11 11 11 12
2 14 10 10 5 7 6 4 7 4 2 2 7 7 5 8 11 6 6 16 15 11 9 9 9 9 10 11 11 12 13 14 14 12 12 13 13 12 12 12 13 13 13 13
5 2 2 5 5 3 5 6 1 1 1 6 1 3 8 8 8 15 12 21 17 12 9 8 6 6 7 9 10 11 12 12 13 13 14 15 14 13 14 15 16 18 20 20
7 9 8 5 6 7 6 7 5 6 4 4 1 6 6 5 4 17 28 24 19 14 8 6 5 5 6 8 8 8 8 9 10 12 13 12 12 13 14 15 18 20 21 23
6 3 2 2 3 6 5 4 4 2 2 2 3 6 2 7 8 17 22 23 19 14 9 7 5 5 7 5 5 5 7 8 9 12 13 14 14 16 18 19 20 21 22 23
5 5 1 2 3 2 4 4 2 2 3 4 4 4 4 2 7 8 10 20 18 14 12 7 6 7 6 2 2 2 5 9 12 14 15 16 18 19 21 23 24 25 26 29
6 4 1 3 4 7 2 1 2 3 4 4 1 5 5 8 8 11 11 22 20 17 12 8 8 8 7 4 3 2 8 12 14 15 16 18 20 23 24 26 28 30 32 34
2 5 4 3 1 1 3 6 5 4 3 1 3 5 3 2 7 13 20 23 17 15 13 11 10 10 8 5 3 8 12 14 15 17 18 21 23 26 27 28 29 31 33 34
5 2 4 3 4 2 4 4 4 4 3 5 5 5 4 5 6 4 9 10 15 16 16 13 13 12 8 4 5 10 13 16 18 19 21 23 24 26 27 29 30 30 31 31
3 3 5 7 4 5 5 5 5 5 4 4 5 2 1 4 5 5 7 14 16 18 17 17 15 11 7 4 7 10 14 17 20 22 24 25 25 26 26 27 29 31 31 32
3 4 2 2 3 3 4 6 8 7 4 6 1 5 4 6 7 11 11 11 19 21 20 18 14 9 4 5 7 12 16 20 21 21 22 21 22 25 27 28 30 30 30 31
3 3 2 2 4 3 3 4 6 5 4 6 2 10 4 8 5 1 3 16 25 24 21 17 13 9 7 5 9 15 18 20 21 20 20 22 25 27 28 28 29 29 30 30
3 3 2 2 3 5 5 5 5 4 4 5 4 5 4 5 5 6 5 17 25 25 21 18 14 8 4 9 14 16 18 18 16 18 20 22 25 26 26 27 28 29 30 31
5 4 2 2 2 1 0 4 6 5 3 2 4 6 3 3 4 3 1 14 21 23 20 15 8 4 7 14 15 16 16 15 18 21 23 24 25 26 27 28 29 31 32 33
3 4 3 3 2 5 2 2 3 3 2 2 4 2 1 1 4 5 4 12 16 19 16 10 4 6 14 16 17 16 14 18 21 23 24 24 26 27 29 30 32 32 34 35
5 6 4 2 3 5 2 2 2 1 2 5 3 4 4 3 4 4 6 10 17 16 9 3 7 11 17 18 16 16 19 21 22 24 24 24 25 27 29 30 32 33 33 35
3 3 5 3 2 6 5 7 1 4 3 6 11 12 12 2 6 10 8 10 10 8 6 8 12 18 25 21 17 18 20 22 23 24 25 25 26 28 30 32 32 34 35 36
6 6 4 3 2 7 3 1 3 4 5 7 9 10 9 8 7 8 11 13 12 10 10 11 15 21 23 15 17 18 20 22 23 24 26 27 29 30 32 32 34 35 36 37
3 5 5 7 5 2 7 9 10 7 5 1 4 5 5 7 10 12 13 13 11 10 12 12 20 19 13 14 16 19 21 23 25 26 28 30 31 32 32 34 36 37 36 36
2 3 2 1 1 6 9 10 3 2 1 4 4 5 6 8 10 12 15 13 13 12 12 14 12 10 13 15 17 19 22 24 26 29 31 32 34 34 34 35 36 36 35 35
6 2 2 3 6 1 12 2 3 4 6 7 7 8 11 12 11 13 14 12 12 13 11 9 10 13 15 17 18 20 21 24 27 30 32 33 33 34 36 37 37 35 34 26
7 6 4 4 4 3 3 6 8 7 7 8 11 14 13 14 14 14 13 13 12 9 8 10 12 15 17 19 20 22 22 25 28 32 33 32 32 35 38 40 41 37 33 30
Wind_Direction
196 177 191 193 189 186 169 247 276 272 262 172 211 235 261 284 131 127 131 124 111 95 83 72 61 53 38 330 276 290 277 267 261 257 256 262 270 282 291 293 290 296 300 300
163 209 194 191 187 203 241 283 287 287 290 215 226 264 278 140 162 149 144 132 122 111 91 75 69 64 59 55 48 30 292 285 301 291 265 260 265 273 280 287 291 297 302 305
189 173 173 186 174 209 223 219 249 231 325 329 44 302 194 13 130 147 142 129 119 99 83 72 68 65 64 60 51 42 32 7 318 326 298 272 270 275 282 287 292 294 295 298
188 154 177 200 214 166 232 219 234 252 39 240 59 274 282 220 188 165 152 132 113 103 94 80 73 71 63 58 52 46 41 37 18 350 321 303 277 283 294 299 302 304 304 303
197 159 175 194 211 175 226 189 164 181 98 28 294 78 267 140 227 210 200 142 127 116 102 85 74 70 67 62 53 49 45 46 42 35 37 34 31 23 13 4 354 343 333 325
151 164 159 193 174 187 151 91 38 45 73 306 222 169 259 189 210 194 192 157 140 131 113 94 90 86 70 58 51 43 40 46 47 48 50 48 42 33 22 15 6 1 357 354
343 191 169 147 111 59 85 82 336 321 319 226 143 136 252 214 196 188 168 165 152 143 132 121 112 94 70 53 46 42 41 46 43 40 35 30 24 13 7 1 351 342 336 334
183 166 182 185 167 170 180 157 163 206 198 239 80 230 251 248 158 158 167 161 163 159 146 152 141 109 72 53 42 34 27 27 25 22 18 9 0 354 347 340 335 331 328 326
151 237 55 96 124 132 189 179 191 138 14 39 225 284 320 33 96 131 152 164 171 174 183 172 136 104 78 62 34 19 8 10 8 2 359 359 354 349 345 340 334 328 324 323
184 108 257 159 103 35 138 166 96 353 198 242 290 278 247 131 148 140 160 175 183 190 185 173 145 116 129 115 54 10 359 356 353 352 352 350 344 337 333 331 328 327 324 324
146 107 213 105 195 175 123 232 89 132 140 188 258 269 217 200 192 170 186 192 196 195 182 168 147 158 163 175 199 342 335 339 342 346 343 340 336 332 330 328 325 323 322 323
174 118 125 194 278 192 197 193 153 133 215 156 153 273 317 186 182 173 198 206 203 195 179 163 167 172 175 191 264 316 331 338 343 341 337 331 325 322 319 319 321 321 322 321
180 109 98 51 359 307 215 198 153 111 105 202 150 260 340 65 148 184 184 201 208 187 170 168 173 181 192 221 295 319 330 336 335 332 326 323 325 325 326 327 327 326 326 325
116 119 165 183 184 142 185 179 173 148 143 200 214 199 215 224 193 198 201 241 199 173 177 184 188 192 206 261 308 318 327 329 327 323 322 324 326 329 330 329 327 327 327 326
88 116 98 88 108 110 176 180 189 191 176 189 178 206 223 249 252 258 269 225 172 177 181 193 198 196 212 270 306 328 328 326 323 324 327 331 331 330 330 330 330 331 331 330
11 131 123 45 19 61 251 255 241 220 212 267 312 292 205 278 308 264 247 172 179 185 189 191 196 208 241 296 330 327 325 321 322 323 327 329 329 331 332 333 336 336 335 335
61 106 83 220 339 320 278 211 208 181 180 170 211 245 20 344 26 52 209 190 190 189 198 203 208 221 296 324 327 323 318 319 320 325 327 329 331 333 337 339 339 339 336 335
124 100 89 172 1 284 220 303 205 154 95 248 340 325 340 64 92 26 335 211 202 203 200 197 203 255 319 327 323 318 317 319 323 326 329 333 335 337 338 339 339 337 335 332
58 113 93 140 202 303 98 345 119 151 47 31 102 355 349 99 163 314 264 234 225 207 198 199 216 317 328 327 323 317 314 318 321 327 330 335 337 336 336 335 334 333 331 329
59 75 108 80 148 216 218 236 247 115 156 358 334 11 312 332 350 267 218 207 202 198 192 237 298 322 333 323 317 314 318 323 327 329 331 333 333 332 331 331 332 332 329 328
77 45 153 162 228 293 250 254 190 117 213 47 59 35 20 334 276 303 214 210 213 209 243 279 308 321 322 311 308 316 323 326 327 327 328 329 330 330 331 330 331 331 330 330
161 141 185 110 167 262 330 42 180 154 99 65 46 27 8 340 300 266 247 229 226 237 253 288 301 316 312 307 315 321 324 324 325 324 325 327 328 330 330 331 332 332 331 331
193 183 181 181 212 142 69 109 110 105 114 60 324 314 307 287 275 269 233 226 235 252 273 297 313 310 302 303 318 324 326 326 324 324 325 325 326 328 331 333 331 331 332 331
269 183 204 116 135 136 131 136 144 183 251 263 281 303 270 280 282 266 248 253 256 264 285 310 308 302 305 315 322 322 324 323 322 322 323 325 327 329 330 332 331 329 328 327
213 142 171 262 288 63 157 148 166 231 257 300 275 258 289 297 286 273 263 254 263 282 299 293 295 305 311 315 319 323 325 322 320 320 323 325 324 326 328 329 329 325 323 319
206 187 178 232 236 186 269 341 322 302 281 285 274 281 279 274 268 266 262 270 279 280 279 292 300 304 313 317 321 327 324 320 320 320 321 322 323 326 327 326 324 322 323 320